TimeCDT,TemperatureF,Dew PointF,Humidity,Sea Level PressureIn,VisibilityMPH,Wind Direction,Wind SpeedMPH,Gust SpeedMPH,PrecipitationIn,Events,Conditions,WindDirDegrees,DateUTC
12:53 AM,46.4,42.8,87,29.87,10.0,East,11.5,-,N/A,,Overcast,100,2012-10-23 05:53:00
1:53 AM,46.9,42.1,83,29.89,10.0,East,10.4,-,N/A,,Overcast,100,2012-10-23 06:53:00
2:53 AM,46.9,43.0,86,29.87,10.0,ESE,6.9,-,N/A,,Overcast,110,2012-10-23 07:53:00
3:08 AM,46.4,42.8,87,29.84,10.0,East,6.9,-,N/A,,Overcast,100,2012-10-23 08:08:00
3:53 AM,46.9,44.1,90,29.84,2.5,ESE,9.2,-,N/A,,Overcast,120,2012-10-23 08:53:00
4:02 AM,46.4,44.6,93,29.82,2.0,ESE,6.9,-,N/A,Rain,Light Rain,110,2012-10-23 09:02:00
4:53 AM,46.0,45.0,96,29.83,3.0,ESE,9.2,-,0.00,,Overcast,110,2012-10-23 09:53:00
5:53 AM,46.9,45.0,93,29.83,3.0,ESE,8.1,-,N/A,,Overcast,110,2012-10-23 10:53:00
6:17 AM,46.4,44.6,93,29.80,2.0,East,9.2,-,N/A,,Overcast,100,2012-10-23 11:17:00
6:41 AM,46.4,44.6,93,29.80,3.0,ESE,8.1,-,0.00,,Overcast,110,2012-10-23 11:41:00
6:53 AM,46.0,45.0,96,29.82,2.5,East,10.4,-,0.00,,Overcast,100,2012-10-23 11:53:00
7:14 AM,46.4,44.6,93,29.79,4.0,East,8.1,-,0.00,,Overcast,100,2012-10-23 12:14:00
7:53 AM,46.0,45.0,96,29.82,3.0,East,9.2,-,0.01,,Overcast,100,2012-10-23 12:53:00
8:53 AM,46.9,45.0,93,29.81,7.0,ESE,9.2,-,0.00,,Overcast,110,2012-10-23 13:53:00
9:53 AM,46.9,46.0,97,29.79,5.0,ESE,10.4,-,0.00,,Overcast,110,2012-10-23 14:53:00
10:45 AM,46.4,46.4,100,29.76,2.5,East,11.5,-,N/A,,Overcast,100,2012-10-23 15:45:00
10:53 AM,46.9,46.0,97,29.78,2.5,ESE,9.2,-,N/A,,Overcast,110,2012-10-23 15:53:00
11:22 AM,48.2,46.4,93,29.75,1.5,ESE,9.2,-,N/A,,Overcast,110,2012-10-23 16:22:00
11:53 AM,48.0,46.9,96,29.76,1.0,ESE,9.2,-,N/A,,Overcast,110,2012-10-23 16:53:00
12:53 PM,48.0,46.9,96,29.74,2.0,ESE,10.4,-,N/A,,Overcast,120,2012-10-23 17:53:00
1:07 PM,48.2,46.4,93,29.71,3.0,ESE,10.4,-,N/A,,Overcast,110,2012-10-23 18:07:00
1:42 PM,48.2,46.4,93,29.72,2.5,ESE,8.1,-,N/A,,Overcast,120,2012-10-23 18:42:00
1:53 PM,48.0,46.9,96,29.74,1.2,ESE,6.9,-,N/A,,Overcast,110,2012-10-23 18:53:00
2:31 PM,48.2,46.4,93,29.71,2.0,ESE,9.2,-,N/A,,Overcast,120,2012-10-23 19:31:00
2:38 PM,48.2,46.4,93,29.71,1.5,ESE,9.2,-,N/A,,Overcast,110,2012-10-23 19:38:00
2:53 PM,48.0,46.9,96,29.73,1.8,ESE,8.1,-,N/A,,Overcast,120,2012-10-23 19:53:00
3:49 PM,48.2,46.4,93,29.68,2.0,ESE,10.4,-,0.01,Rain,Light Rain,120,2012-10-23 20:49:00
3:53 PM,48.0,46.9,96,29.70,1.8,SE,10.4,-,0.02,Rain,Light Rain,130,2012-10-23 20:53:00
4:08 PM,48.2,46.4,93,29.68,3.0,ESE,9.2,-,0.01,Rain,Light Rain,120,2012-10-23 21:08:00
4:27 PM,48.2,46.4,93,29.67,2.0,ESE,9.2,-,0.01,,Overcast,120,2012-10-23 21:27:00
4:53 PM,48.0,46.9,96,29.70,1.8,ESE,10.4,-,0.01,,Overcast,120,2012-10-23 21:53:00
5:13 PM,48.2,48.2,100,29.69,0.8,SE,5.8,-,N/A,,Overcast,130,2012-10-23 22:13:00
5:53 PM,48.0,48.0,100,29.72,0.8,ESE,6.9,-,0.01,Rain,Light Rain,120,2012-10-23 22:53:00
6:13 PM,48.2,48.2,100,29.70,1.2,SE,5.8,-,0.00,,Overcast,130,2012-10-23 23:13:00
6:53 PM,48.0,48.0,100,29.72,1.2,ESE,4.6,-,0.01,,Overcast,120,2012-10-23 23:53:00
7:53 PM,48.0,48.0,100,29.73,1.8,SE,8.1,-,N/A,,Overcast,140,2012-10-24 00:53:00
8:50 PM,48.2,48.2,100,29.72,0.8,SSE,4.6,-,N/A,,Mist,150,2012-10-24 01:50:00
8:53 PM,48.9,48.9,100,29.75,0.8,SSE,4.6,-,N/A,,Mist,150,2012-10-24 01:53:00
9:18 PM,48.2,48.2,100,29.72,1.0,South,4.6,-,N/A,,Overcast,170,2012-10-24 02:18:00
9:53 PM,48.9,48.9,100,29.74,1.5,SSE,3.5,-,0.01,,Overcast,150,2012-10-24 02:53:00
10:15 PM,50.0,48.2,94,29.72,2.5,South,4.6,-,N/A,,Overcast,180,2012-10-24 03:15:00
10:53 PM,50.0,50.0,100,29.76,2.5,South,5.8,-,N/A,,Overcast,180,2012-10-24 03:53:00
11:33 PM,51.8,50.0,94,29.73,3.0,South,4.6,-,N/A,,Overcast,170,2012-10-24 04:33:00
11:53 PM,51.1,51.1,100,29.75,3.0,South,5.8,-,N/A,,Overcast,180,2012-10-24 04:53:00